EW9975 Weather Reports


Display with metric or nautical units.
time (UTC)temp
F
wind
direction
speed
MPH
gust
MPH
rain 1hr
in
rain 24hr
in
rain mn
in
humidity
%
barometer
mb
20260504193002 62 262 10.0 13.0 0.00 0.00 0.00 82 1017.2
20260504191501 62 236 9.0 11.0 0.00 0.00 0.00 80 1017.3
20260504190108 61 252 9.0 12.0 0.00 0.00 0.00 80 1017.1
20260504184558 61 254 9.0 12.0 0.00 0.00 0.00 80 1017.4
20260504183102 61 248 11.0 13.0 0.00 0.00 0.00 81 1017.3
20260504181555 61 254 9.0 12.0 0.00 0.00 0.00 81 1017.2
20260504180132 61 248 9.0 12.0 0.00 0.00 0.00 80 1017.2
20260504174553 61 260 7.0 12.0 0.00 0.00 0.00 81 1017.1
20260504173052 61 251 11.0 13.0 0.00 0.00 0.00 81 1017.1
20260504171551 61 236 7.0 11.0 0.00 0.00 0.00 81 1016.9
20260504081505 61 268 15.0 21.0 0.00 0.00 0.00 83 1015.8
20260504044543 62 222 6.0 10.0 0.00 0.00 0.00 81 1015.4
20260504043051 63 211 6.0 9.0 0.00 0.00 0.00 81 1015.3
20260504041541 63 215 6.0 9.0 0.00 0.00 0.00 80 1015.1
20260504040040 63 225 7.0 8.0 0.00 0.00 0.00 80 1014.9
20260504034547 63 218 6.0 10.0 0.00 0.00 0.00 80 1015.0
20260504033041 63 213 5.0 9.0 0.00 0.00 0.00 79 1015.0
20260504031539 63 215 6.0 9.0 0.00 0.00 0.00 78 1015.1
20260504030045 63 215 6.0 9.0 0.00 0.00 0.00 77 1014.9
20260504024537 63 229 6.0 8.0 0.00 0.00 0.00 78 1014.6
20260504023036 63 225 7.0 9.0 0.00 0.00 0.00 78 1014.5
20260504021537 63 238 7.0 12.0 0.00 0.00 0.00 77 1014.6
20260504020041 63 240 9.0 11.0 0.00 0.00 0.00 78 1014.5
20260504014538 63 230 10.0 12.0 0.00 0.00 0.00 77 1014.4
20260504013036 63 238 9.0 12.0 0.00 0.00 0.00 78 1014.5
20260504011534 63 231 10.0 12.0 0.00 0.00 0.00 77 1014.4
20260504010033 63 247 11.0 14.0 0.00 0.00 0.00 77 1014.4
20260504004534 63 235 11.0 14.0 0.00 0.00 0.00 76 1014.2
20260504003032 63 244 10.0 14.0 0.00 0.00 0.00 76 1013.8
20260504001535 63 248 10.0 14.0 0.00 0.00 0.00 75 1014.0
20260504000030 63 260 11.0 12.0 0.00 0.00 0.00 75 1013.9
20260503234530 63 225 11.0 13.0 0.00 0.00 0.00 74 1014.0
20260503233028 63 254 8.0 11.0 0.00 0.00 0.00 76 1013.5
20260503231529 63 240 9.0 13.0 0.00 0.00 0.00 77 1013.8
20260503230027 63 272 10.0 13.0 0.00 0.00 0.00 77 1014.1
20260503224527 63 249 11.0 13.0 0.00 0.00 0.00 78 1014.1
20260503223023 63 261 9.0 12.0 0.00 0.00 0.00 78 1014.0
20260503221522 63 267 8.0 11.0 0.00 0.00 0.00 77 1014.2
20260503220021 63 250 8.0 10.0 0.00 0.00 0.00 77 1014.3
20260503214536 63 272 7.0 10.0 0.00 0.00 0.00 78 1014.6
20260503213017 63 273 7.0 10.0 0.00 0.00 0.00 78 1014.5
20260503211515 63 259 9.0 12.0 0.00 0.00 0.00 78 1014.6
20260503210013 62 253 11.0 14.0 0.00 0.00 0.00 79 1014.6
20260503204512 63 256 11.0 14.0 0.00 0.00 0.00 80 1014.7
20260503203008 62 264 11.0 15.0 0.00 0.00 0.00 80 1014.8
20260503201507 63 265 10.0 14.0 0.00 0.00 0.00 80 1014.8
20260503200004 63 255 10.0 15.0 0.00 0.00 0.00 81 1015.0
20260503194503 63 234 9.0 13.0 0.00 0.00 0.00 81 1015.0